Regional Weather Roundup
Issued by NWS State College, PA

Home | Current Version | Previous Version | Text Only | Print | Product List | Glossary Off
Versions: 1 2 3 4 5 6 7 8 9 10 11 12 13 14 15 16 17 18 19 20 21 22 23 24 25 26 27 28 29 30 31 32 33 34 35 36 37 38 39 40 41 42 43 44 45 46 47 48 49 50

000
ASUS41 KCTP 302010
RWRCTP

REGIONAL WEATHER ROUNDUP
NATIONAL WEATHER SERVICE STATE COLLEGE PA
400 PM EDT THU JUL 30 2015

Note: "fair" indicates few or no clouds below 12,000 feet with no
significant weather and/or obstructions to visibility.

* = STATION THAT DOES NOT REPORT PRECIPITATION /E.G. RAIN...SNOW...ETC/
    THUNDER OR FOG.

PAZ002>004-007>009-013>016-020>023-029>032-302100-
WESTERN PENNSYLVANIA

CITY           SKY/WX    TMP DP  RH WIND       PRES   REMARKS
ERIE           SUNNY     81  62  52 W12G24    29.93F
MEADVILLE      SUNNY     83  52  34 W12G21    29.96F
FRANKLIN*      MOSUNNY   81  55  41 W12       29.97F
NEW CASTLE     FAIR      87  60  40 W8        29.96F
BEAVER COUNTY  SUNNY     84  57  39 W8G16     29.96F
BUTLER*        SUNNY     84  57  39 NW6G16    29.97F
PITTSBURGH INT MOSUNNY   86  55  34 NW13      29.95F
PITTSBURGH     SUNNY     85  48  27 NW10G21   29.94F
INDIANA*       SUNNY     84  59  42 VRB7G24   29.97F
LATROBE        SUNNY     86  55  35 W12       29.94F
WASHINGTON CO* NOT AVBL
$$

PAZ004>006-010>012-017>019-024>028-033>037-041-042-045-046-049>053-302100-
CENTRAL PENNSYLVANIA

CITY           SKY/WX    TMP DP  RH WIND       PRES   REMARKS
BRADFORD       MOSUNNY   77  53  43 W13G22    29.95F
DUBOIS         MOSUNNY   82  56  40 W12G22    29.94F
CLEARFIELD     SUNNY     85  55  35 W13G22    29.92F
JOHNSTOWN      SUNNY     81  54  39 W14G21    29.98F
ALTOONA        MOSUNNY   84  60  44 NW13      29.93F
STATE COLLEGE  SUNNY     82  61  47 W14       29.90F
WILLIAMSPORT   MOSUNNY   89  57  33 W5G17     29.81F
SELINSGROVE    PTSUNNY   88  69  53 VRB6      29.84F
FT INDIANTOWN  PTSUNNY   86  70  58 VRB6      29.84F
CAPITAL CITY   PTSUNNY   87  68  52 W9        29.84F
HARRISBURG     PTSUNNY   86  72  62 NW8       29.83F
YORK           PTSUNNY   83  76  79 SW3       29.85F
$$

PAZ038>040-043-044-047-048-054-055-060>062-067>071-302100-
EASTERN PENNSYLVANIA

CITY           SKY/WX    TMP DP  RH WIND       PRES   REMARKS
SCRANTON       PTSUNNY   86  67  52 VRB7      29.83F
MOUNT POCONO   CLOUDY    79  70  74 W9G17     29.89F
ALLENTOWN      LGT RAIN  77  73  87 SW6       29.83F
QUAKERTOWN*    CLOUDY    75  73  94 W5        29.85F
READING        CLOUDY    79  73  82 S7        29.84F
LANCASTER      CLOUDY    78  75  90 SE5       29.86S
COATESVILLE    LGT RAIN  73  73 100 SW3       29.88F
POTTSTOWN      LGT RAIN  76  74  93 VRB3      29.86F
BLUE BELL      CLOUDY    77  73  88 W3        29.83F
DOYLESTOWN     CLOUDY    75  73  93 SW8       29.83F
WILLOW GROVE   NOT AVBL
NORTH PHILA    RAIN      78  70  76 SW9       29.85S
PHILADELPHIA   TSTM      79  72  79 NW8       29.84F
$$



USA.gov is the U.S. government's official web portal to all federal, state and local government web resources and services.